Regional Weather Roundup
Issued by NWS Newport/Morehead, NC

Home | Current Version | Previous Version | Text Only | Print | Product List | Glossary On
Versions: 1 2 3 4 5 6 7 8 9 10 11 12 13 14 15 16 17 18 19 20 21 22 23 24 25 26 27 28 29 30 31 32 33 34 35 36 37 38 39 40 41 42 43 44 45 46 47 48 49 50
000
ASUS42 KMHX 271722
RWRMHX
WEATHER ROUNDUP FOR EASTERN NORTH CAROLINA
NATIONAL WEATHER SERVICE NEWPORT/MOREHEAD CITY NC
1200 PM EST TUE JAN 27 2015

NOTE: "FAIR" INDICATES FEW OR NO CLOUDS BELOW 12,000 FEET
WITH NO SIGNIFICANT WEATHER AND/OR OBSTRUCTIONS TO VISIBILITY

NCZ015>017-031-032-045>047-102-103-271800-
NORTH COAST

CITY           SKY/WX    TMP DP  RH WIND       PRES   REMARKS
EDENTON        FLURRIES  33  30  90 NW12      29.78S
ELIZABETH CITY CLOUDY    35  29  78 N16       29.76F
KITTY HAWK     CLOUDY    34  32  93 NW12      29.72F
MANTEO         CLOUDY    34  30  86 NW10G16   29.74F

$$

NCZ045>047-081-094-103-104-271800-
CENTRAL COAST

CITY           SKY/WX    TMP DP  RH WIND       PRES   REMARKS
FRISCO         LGT SNOW  34  32  92 N9G20     29.73F FOG
SWANQUARTER    NOT AVBL

$$

NCZ095-097-098-100-101-271800-
SOUTHERN COAST

CITY           SKY/WX    TMP DP  RH WIND       PRES   REMARKS
BEAUFORT       CLOUDY    39  30  70 N16       29.77F
CEDAR ISLAND   NOT AVBL
JACKSONVILLE   PTSUNNY   40  27  59 N17G24    29.78F
PINEY ISLAND     N/A    N/A N/A N/A MISG      29.77S
WILMINGTON     CLOUDY    40  33  76 NW14G21   29.80F


$$

NCZ011>013-027>030-043-044-078>080-089-090>093-098-271800-
COASTAL PLAIN

CITY           SKY/WX    TMP DP  RH WIND       PRES   REMARKS
AHOSKIE        CLOUDY    32  27  81 N9        29.81F
CLINTON        CLOUDY    38  28  68 N8        29.83S
ELIZABETHTOWN  CLOUDY    40  26  56 NW8       29.82S
GOLDSBORO      FLURRIES  37  36  93 N10       29.80S
GREENVILLE     PTSUNNY   36  30  80 N13G22    29.83F
HAVELOCK       CLOUDY    38  27  64 NW21      29.79F
KENANSVILLE    CLOUDY    37  32  79 N7        29.82F
KINSTON        PTSUNNY   37  28  70 N12       29.81F
NEW BERN       CLOUDY    39  27  62 N16G25    29.80F
RICHLANDS      CLOUDY    39  25  56 N13G20    29.79F
ROCKY MOUNT    CLOUDY    38  28  67 N12       29.82F
WASHINGTON     MIX PCPN  34  27  76 NW13      29.80S
WHITEVILLE     PTSUNNY   42  26  53 W6        29.82S

$$

AMZ130-135-150-152-154-156-158-170-250-252-270-ANZ085-086-088-633-658-670-271800-
MARINE OBSERVATIONS

STATION/POSITION TIME  TEMP    WIND        PRES    WAVE   SWELL
                       AIR SEA DIR/SP/G            HT/PER HT/PER
                 (UTC) (F)     (DEG/KT/KT) (MB)    (FT/S) (FT/S)
CHESAPEAKE LIGHT 1700   33     350/ 25/ 27 1007.0
64 E VA BEACH    1700   36 51  340/ 21/ 27 1004.7   14/13  11/13
DUCK             1700   34 43  330/ 20/ 23 1005.7
2 E DUCK         1700      44                N/A     9/13   5/13
10 NE DUCK       1700      45                N/A    11/13   8/13
OREGON INLET     1700   34 45  330/ 13/ 20 1006.6
13E OREGON INLT  1700      46                N/A    12/12   8/12
HATTERAS CG      1700   35 48  330/ 17/ 20 1007.0
DIAMOND BUOY     1700   39 69  340/ 19/ 25 1005.9    8/11   7/11
17 S OCRACOKE    NOT AVBL
CAPE LOOKOUT     1700   37     340/ 15/ 19 1007.6
BEAUFORT LAB     1700   37 49  340/ 11/ 20 1006.9
27 SE WRIGHTSVLE NOT AVBL
5 SE WRIGHTSVLE  1700   40 53  350/ 14/ 16 1008.8
225 S CAPE HAT   1605   59 71  300/ 27/ 35 1004.8   16/10  10/10
41 SE CHARLESTON 1700   44 68  320/ 14/ 19 1010.4    5/ 7   2/11

$$



USA.gov is the U.S. government's official web portal to all federal, state and local government web resources and services.